[[{"header":{"parameterUnit":"m.s-1","parameterCategory":1,"la1":30.2991,"la2":30.254,"lo1":-89.0895,"lo2":-89.0444,"dy":0.0017,"dx":0.0017,"nx":28,"ny":28,"refTime":"2024-05-20T09:00:00:Z","depth":0,"parameterNumber":2,"parameterNumberName":"U-component_of_WINDS"},"data":[0,0,0,0,0,0,0,0,0,0,0,0,0,0,0,0,0,0,0,0,0,0,0,0,0,0,0,0,0,0,0,0,0,0,0,0,0,0,0,0,0,0,0,0,0,0,0,0,0,0,0,0,0,0,0,0,0,0,-3.1926,-3.1925,0,-3.1869,-3.1868,-3.1868,-3.1782,-3.1781,-3.1779,-3.1778,-3.172,-3.172,-3.172,0,0,0,0,0,0,0,0,0,0,0,0,0,-3.1962,-3.1962,-3.1926,-3.1925,-3.1924,-3.1869,-3.1868,-3.1868,-3.1783,-3.1781,-3.1779,-3.1777,-3.172,-3.172,-3.172,0,0,0,0,0,0,0,0,0,0,0,0,0,-3.193,-3.1962,-3.1926,-3.1875,-3.187,-3.1869,-3.1868,-3.1867,-3.1783,-3.1781,-3.1778,-3.1776,-3.172,-3.172,-3.172,-3.1764,0,0,-3.1719,-3.1719,0,0,0,0,0,0,0,0,-3.1932,-3.1929,-3.1883,-3.1879,-3.1873,-3.183,-3.186,-3.1833,-3.1784,-3.1816,-3.1778,-3.1775,-3.1758,-3.1755,-3.1749,-3.1761,-3.1758,-3.1719,-3.1719,-3.1719,-3.1719,0,0,0,0,0,0,0,-3.1934,-3.1931,-3.1903,-3.1883,-3.1876,-3.1856,-3.1849,-3.1854,-3.1801,-3.1813,-3.1807,-3.1801,-3.1755,-3.175,-3.1747,-3.1758,-3.1719,-3.1719,-3.1719,-3.1719,-3.1804,-3.1807,0,0,0,0,0,0,-3.1944,-3.1933,-3.1905,-3.1902,-3.1897,-3.1857,-3.1849,-3.1846,-3.18,-3.1791,-3.1803,-3.1797,-3.1751,-3.1748,-3.1745,-3.1794,-3.1719,-3.1719,-3.1718,-3.1802,-3.1805,-3.1808,0,0,0,0,0,0,-3.1945,-3.1942,-3.1907,-3.1916,-3.191,-3.1859,-3.1856,-3.1846,-3.1841,-3.1793,-3.1783,-3.1807,-3.1749,-3.1745,-3.176,-3.1791,-3.1718,-3.1718,-3.1799,-3.1803,-3.1806,-3.1892,0,0,0,0,0,0,-3.1946,-3.1943,-3.1958,-3.1917,-3.1909,-3.1923,-3.1858,-3.1847,-3.1841,-3.1833,-3.1794,-3.1786,-3.1747,-3.1761,-3.176,-3.1789,-3.1718,-3.1796,-3.1801,-3.1805,-3.1886,-3.1898,-3.1909,0,0,0,0,0,-3.1948,-3.1985,-3.196,-3.1957,-3.1928,-3.1925,-3.1921,-3.1876,-3.1843,-3.1859,-3.1829,-3.1787,-3.1788,-3.1763,-3.1761,-3.1791,-3.1794,-3.18,-3.1805,-3.1881,-3.1896,-3.1908,0,0,0,0,0,0,-3.203,-3.1978,-3.195,-3.1974,-3.1955,-3.191,-3.1928,-3.1892,-3.1882,-3.1874,-3.1819,-3.1812,-3.1834,-3.1814,-3.1787,-3.1832,-3.1785,-3.179,-3.1844,-3.1857,-3.1868,-3.1871,-3.1718,0,0,0,0,0,-3.2052,-3.2054,-3.2008,-3.2034,-3.2025,-3.1979,-3.1976,-3.1943,-3.1921,-3.1912,-3.1883,-3.1863,-3.1859,-3.1857,-3.1851,-3.1884,-3.1875,-3.1904,-3.1915,-3.1924,-3.1929,-3.1946,-3.1959,-3.1825,-3.1825,-3.1825,0,0,-3.2095,-3.2067,-3.2071,-3.205,-3.203,-3.2034,-3.1972,-3.1978,-3.198,-3.1913,-3.1925,-3.1904,-3.1878,-3.1903,-3.1912,-3.1887,-3.1964,-3.1931,-3.1939,-3.1938,-3.1953,-3.1966,-3.1977,-3.1829,-3.1828,-3.1828,0,0,-3.2176,-3.2155,-3.2174,-3.2157,-3.213,-3.2099,-3.2104,-3.2066,-3.2049,-3.2061,-3.2011,-3.2013,-3.2007,-3.1991,-3.1982,-3.2061,-3.2022,-3.2061,-3.2118,-3.2135,-3.2146,-3.2155,-3.2183,-3.2194,-3.2066,-3.2066,-3.2067,0,-3.2233,-3.2235,-3.2189,-3.2198,-3.2191,-3.2131,-3.2151,-3.2137,-3.2109,-3.2106,-3.2079,-3.2071,-3.205,-3.207,-3.209,-3.2085,-3.2089,-3.2064,-3.2148,-3.2157,-3.2165,-3.2191,-3.2201,-3.2071,-3.2071,-3.207,-3.207,0,-3.2307,-3.2311,-3.233,-3.2305,-3.23,-3.2315,-3.2271,-3.2272,-3.2241,-3.2214,-3.2227,-3.22,-3.2188,-3.2191,-3.216,-3.2208,-3.2193,-3.2158,-3.2109,-3.2183,-3.2206,-3.2216,-3.2078,-3.2076,-3.2075,-3.2074,0,0,-3.2435,-3.2386,-3.2394,-3.2383,-3.235,-3.2352,-3.2365,-3.2353,-3.2355,-3.2339,-3.2349,-3.2347,-3.2315,-3.2306,-3.2273,-3.2289,-3.2353,-3.2252,-3.225,-3.2271,-3.2405,-3.243,-3.2442,-3.2329,-3.233,-3.2332,-3.2407,0,-3.2508,-3.2527,-3.2486,-3.2515,-3.2518,-3.2464,-3.2475,-3.2457,-3.2433,-3.2433,-3.2406,-3.2405,-3.2363,-3.2357,-3.2371,-3.2343,-3.2379,-3.2337,-3.2337,-3.2338,-3.2343,-3.2454,-3.2481,-3.2552,-3.2415,-3.2417,-3.2418,0,-3.2594,-3.2584,-3.2613,-3.258,-3.258,-3.2591,-3.2578,-3.2578,-3.2558,-3.2539,-3.253,-3.2493,-3.2505,-3.246,-3.2475,-3.2448,-3.2446,-3.2433,-3.2435,-3.2431,-3.2381,-3.2453,-3.2574,-3.2585,-3.2432,-3.2431,-3.243,0,-3.2684,-3.2677,-3.2694,-3.2686,-3.2648,-3.2658,-3.2643,-3.2619,-3.2616,-3.2605,-3.2603,-3.2594,-3.2589,-3.2583,-3.2546,-3.2516,-3.2566,-3.2518,-3.2551,-3.2552,-3.2562,-3.2561,-3.2683,-3.2564,-3.2564,-3.2564,-3.2563,0,-3.2768,-3.2788,-3.2734,-3.2744,-3.2765,-3.272,-3.2743,-3.2722,-3.2703,-3.2709,-3.2662,-3.2669,-3.2619,-3.2621,-3.2592,-3.261,-3.2608,-3.2594,-3.2585,-3.2597,-3.2598,-3.2593,-3.2587,-3.2566,-3.2566,-3.2565,-3.2565,0,-3.287,-3.2835,-3.2849,-3.2814,-3.2805,-3.2823,-3.2792,-3.2801,-3.2775,-3.2784,-3.2783,-3.2743,-3.2743,-3.2706,-3.2698,-3.2678,-3.2708,-3.2691,-3.2715,-3.2709,-3.2744,-3.2741,-3.2865,-3.288,-3.2753,-3.2754,-3.2755,0,-3.2926,-3.294,-3.2906,-3.2907,-3.2895,-3.2896,-3.2893,-3.2851,-3.2849,-3.2828,-3.2839,-3.2836,-3.283,-3.2833,-3.2804,-3.2798,-3.278,-3.2824,-3.2778,-3.279,-3.278,-3.2779,-3.278,-3.2833,-3.2835,-3.2836,-3.2837,0,-3.3027,-3.301,-3.3006,-3.2998,-3.2996,-3.2987,-3.2975,-3.2978,-3.2932,-3.2933,-3.2933,-3.2929,-3.2922,-3.2919,-3.2908,-3.2893,-3.2858,-3.2852,-3.2859,-3.287,-3.2883,-3.2876,-3.274,-3.2849,-3.2847,-3.2847,-3.2846,-3.2846,-3.3107,-3.3117,-3.3096,-3.3095,-3.3082,-3.3073,-3.3079,-3.3056,-3.3054,-3.3045,-3.3021,-3.3025,-3.3006,-3.2988,-3.2977,-3.298,-3.2958,-3.2969,-3.2971,-3.2974,-3.2981,-3.2885,-3.2979,-3.2978,-3.2978,-3.2977,-3.2977,0,-3.3205,-3.319,-3.3189,-3.3175,-3.3174,-3.3142,-3.3128,-3.313,-3.3134,-3.312,-3.3116,-3.3117,-3.3115,-3.3087,-3.3082,-3.309,-3.3073,-3.309,-3.3088,-3.3085,-3.3001,-3.2995,-3.3103,-3.3103,-3.3103,-3.3103,-3.3103,-3.3103,-3.3256,-3.3273,-3.3253,-3.3264,-3.3248,-3.3252,-3.3247,-3.3238,-3.3227,-3.323,-3.3228,-3.321,-3.3191,-3.3184,-3.3182,-3.3173,-3.3173,-3.3195,-3.3181,-3.3103,-3.3091,-3.3079,-3.3073,-3.3196,-3.3196,-3.3265,-3.3265,-3.3266]},{"header":{"parameterUnit":"m.s-1","parameterCategory":1,"la1":30.2991,"la2":30.254,"lo1":-89.0895,"lo2":-89.0444,"dy":0.0017,"dx":0.0017,"nx":28,"ny":28,"refTime":"2024-05-20T09:00:00:Z","depth":0,"parameterNumber":3,"parameterNumberName":"V-component_of_WINDS"},"data":[0,0,0,0,0,0,0,0,0,0,0,0,0,0,0,0,0,0,0,0,0,0,0,0,0,0,0,0,0,0,0,0,0,0,0,0,0,0,0,0,0,0,0,0,0,0,0,0,0,0,0,0,0,0,0,0,0,0,2.1349,2.1349,0,2.1312,2.1312,2.1311,2.137,2.1372,2.1374,2.1376,2.1333,2.133,2.1326,0,0,0,0,0,0,0,0,0,0,0,0,0,2.1467,2.1465,2.1349,2.1349,2.1348,2.1312,2.1312,2.1311,2.137,2.1373,2.1375,2.1377,2.1334,2.133,2.1326,0,0,0,0,0,0,0,0,0,0,0,0,0,2.1421,2.1464,2.1349,2.1373,2.1375,2.1312,2.1312,2.1311,2.1369,2.1373,2.1376,2.1379,2.1335,2.133,2.1326,2.1236,0,0,2.1312,2.131,0,0,0,0,0,0,0,0,2.1424,2.1417,2.137,2.1372,2.1374,2.1349,2.1337,2.1285,2.1369,2.1371,2.1376,2.138,2.1335,2.1331,2.1317,2.1233,2.1232,2.1311,2.1308,2.1306,2.1305,0,0,0,0,0,0,0,2.1427,2.1419,2.1334,2.1369,2.1371,2.1385,2.1382,2.1328,2.1336,2.1371,2.1376,2.1371,2.1337,2.1321,2.1316,2.1231,2.1311,2.1307,2.1304,2.1303,2.1074,2.1071,0,0,0,0,0,0,2.1428,2.1421,2.1335,2.1333,2.1407,2.138,2.1377,2.1354,2.1337,2.1338,2.1368,2.1374,2.1327,2.1322,2.1315,2.121,2.1306,2.1302,2.1299,2.1077,2.1073,2.107,0,0,0,0,0,0,2.143,2.142,2.1337,2.1378,2.1369,2.1375,2.1349,2.1351,2.1336,2.1335,2.1336,2.1351,2.133,2.1321,2.1256,2.1209,2.13,2.1296,2.1081,2.1076,2.1071,2.0997,0,0,0,0,0,0,2.1433,2.142,2.1386,2.1377,2.1366,2.1279,2.1346,2.1348,2.1329,2.1335,2.1319,2.1319,2.1331,2.1262,2.1251,2.1204,2.1292,2.1085,2.1079,2.1073,2.1004,2.099,2.0979,0,0,0,0,0,2.1437,2.1365,2.1384,2.1374,2.1325,2.1276,2.127,2.1287,2.1325,2.1291,2.129,2.132,2.1216,2.1255,2.1243,2.1194,2.1088,2.1081,2.1073,2.1009,2.0993,2.0979,0,0,0,0,0,0,2.1366,2.1364,2.1386,2.1309,2.1293,2.1287,2.1244,2.1269,2.124,2.1248,2.1269,2.1264,2.1194,2.1188,2.1231,2.1107,2.1158,2.1148,2.1114,2.1098,2.1086,2.1088,2.1288,0,0,0,0,0,2.1342,2.1304,2.1304,2.1237,2.1228,2.1237,2.1217,2.1232,2.1215,2.1208,2.1202,2.1183,2.1147,2.1122,2.1088,2.1004,2.1001,2.0964,2.0951,2.0941,2.0932,2.0888,2.0871,2.1045,2.1045,2.1045,0,0,2.1291,2.1285,2.126,2.1222,2.1212,2.1171,2.1231,2.1185,2.1155,2.12,2.1139,2.1134,2.1115,2.104,2.1006,2.1032,2.0884,2.0932,2.0923,2.092,2.0878,2.0862,2.0847,2.104,2.1041,2.1042,0,0,2.1177,2.1169,2.1113,2.1102,2.1086,2.1093,2.108,2.107,2.107,2.1009,2.1043,2.1007,2.0943,2.0928,2.0912,2.0796,2.0822,2.0784,2.0718,2.0675,2.0662,2.065,2.0609,2.0594,2.0775,2.0775,2.0775,0,2.1115,2.1057,2.108,2.1033,2.1016,2.1058,2.1001,2.0988,2.0961,2.0947,2.0977,2.09,2.0889,2.0812,2.0784,2.077,2.0754,2.0786,2.0662,2.065,2.0639,2.06,2.0585,2.0771,2.0771,2.0771,2.0772,0,2.0982,2.0941,2.0897,2.0873,2.0851,2.0799,2.0813,2.0788,2.0806,2.0809,2.0748,2.0737,2.0703,2.0686,2.0701,2.0611,2.0627,2.0659,2.0711,2.0618,2.0582,2.0567,2.0764,2.0766,2.0767,2.0768,0,0,2.082,2.0812,2.0796,2.0786,2.0773,2.0741,2.0691,2.066,2.0638,2.0618,2.0577,2.0523,2.0554,2.0536,2.055,2.0512,2.0422,2.0549,2.0549,2.0526,2.0323,2.0299,2.0281,2.044,2.0437,2.0435,2.0325,0,2.0708,2.0624,2.0645,2.0561,2.0524,2.0565,2.0521,2.0508,2.0511,2.0479,2.0481,2.0444,2.0486,2.0476,2.044,2.044,2.0381,2.0449,2.04,2.0398,2.0404,2.0263,2.0237,2.0133,2.0311,2.0308,2.0306,0,2.0565,2.0544,2.0457,2.0452,2.0437,2.0398,2.0372,2.0342,2.0327,2.0332,2.0314,2.0336,2.0286,2.0339,2.0271,2.0316,2.0298,2.0295,2.0291,2.0287,2.0346,2.0254,2.01,2.0085,2.0284,2.0286,2.0288,0,2.0457,2.0406,2.0348,2.0339,2.0331,2.0303,2.0298,2.0287,2.0268,2.0245,2.0232,2.0203,2.0186,2.0162,2.0176,2.0214,2.0105,2.0159,2.0107,2.0107,2.0082,2.0083,1.9922,2.007,2.007,2.007,2.0071,0,2.033,2.0275,2.03,2.0264,2.0205,2.0229,2.0168,2.0168,2.0158,2.0123,2.0155,2.0121,2.0141,2.0108,2.0118,2.006,2.0052,2.0054,2.0058,2.0051,2.0051,2.0039,2.0047,2.0066,2.0067,2.0068,2.0069,0,2.0198,2.0213,2.0153,2.0152,2.015,2.0106,2.0105,2.0071,2.0078,2.0032,2.0023,2.0032,1.9995,2.0007,1.9966,1.9973,1.99,1.9912,1.9905,1.9908,1.9855,1.986,1.9681,1.9659,1.9821,1.9819,1.9818,0,2.0116,2.0076,2.0071,2.0051,2.0045,2.0011,1.9993,2.0015,1.9994,1.9976,1.9945,1.9911,1.9886,1.9824,1.9826,1.9796,1.9808,1.9747,1.9803,1.9799,1.9807,1.981,1.9806,1.9736,1.9734,1.9732,1.9731,0,1.9969,1.9979,1.9952,1.9927,1.9905,1.9887,1.9871,1.9852,1.9873,1.9848,1.9812,1.9792,1.9753,1.9719,1.9692,1.9685,1.9711,1.9714,1.97,1.9693,1.9691,1.9692,1.9875,1.9718,1.9719,1.972,1.9721,1.9721,1.986,1.9826,1.9819,1.9788,1.978,1.9765,1.9734,1.9738,1.9709,1.968,1.9694,1.9653,1.9641,1.9608,1.9598,1.9565,1.9588,1.9568,1.9563,1.9557,1.9551,1.9697,1.956,1.956,1.956,1.9561,1.9561,0,1.9714,1.9713,1.9684,1.9663,1.9639,1.9668,1.9653,1.963,1.9594,1.9582,1.9557,1.9516,1.9484,1.9485,1.9455,1.9428,1.9439,1.942,1.9421,1.942,1.9532,1.9547,1.9411,1.9411,1.9411,1.9411,1.9411,1.9411,1.9636,1.9582,1.9591,1.9533,1.9531,1.9493,1.9481,1.9468,1.9458,1.9412,1.9387,1.9388,1.9381,1.9352,1.9323,1.9324,1.9312,1.9287,1.9292,1.9397,1.9412,1.9426,1.944,1.9284,1.9284,1.9183,1.9183,1.9182]}]]